Epoch 2017 Jan. 7.0 TT = JDT 2457760.5 T 2017 Jan. 8.86133 TT Rudenko q 2.1671926 (2000.0) P Q z +0.0088409 Peri. 287.81974 -0.63888992 +0.15551845 +/-0.0000541 Node 92.72016 +0.53887284 +0.78941352 e 0.9808400 Incl. 131.03885 -0.54903164 +0.59383525 From 75 observations 2017 Jan. 17-Mar. 31, mean residual 0".5.
m1 = 16.0 + 5 logΔ + 10.0 log r